N1LJK-13 Weather Reports


Display with metric or nautical units.
time (UTC)temp
F
wind
direction
speed
MPH
gust
MPH
rain 1hr
in
rain 24hr
in
rain mn
in
humidity
%
barometer
mb
20260506044531 54 226 6.0 8.0 0.00 0.00 0.00 98 1010.9
20260506042531 53 242 5.0 6.0 0.00 0.00 0.00 98 1010.8
20260506040531 53 247 4.0 6.0 0.00 0.00 0.00 98 1010.6
20260506034539 53 231 5.0 6.0 0.00 0.00 0.00 98 1010.6
20260506032531 53 241 4.0 6.0 0.00 0.00 0.00 98 1010.6
20260506030531 54 231 2.0 4.0 0.00 0.00 0.00 98 1010.6
20260506024531 54 235 5.0 8.0 0.00 0.00 0.00 98 1010.6
20260506020531 56 240 4.0 6.0 0.00 0.00 0.00 98 1010.7
20260506014531 57 258 6.0 10.0 0.00 0.00 0.00 98 1010.8
20260506012531 57 256 6.0 8.0 0.00 0.00 0.00 98 1010.6
20260506010531 57 217 5.0 8.0 0.00 0.00 0.00 98 1010.3
20260506004531 57 244 7.0 9.0 0.00 0.00 0.00 98 1009.8
20260506002531 58 238 5.0 6.0 0.00 0.00 0.00 98 1009.4
20260506000532 58 244 6.0 8.0 0.00 0.00 0.00 98 1009.4
20260505234531 55 245 6.0 8.0 0.00 0.00 0.00 98 1009.3
20260505232531 57 263 8.0 10.0 0.00 0.00 0.00 98 1007.8
20260505230531 57 234 7.0 9.0 0.00 0.00 0.00 98 1007.3
20260505224531 57 230 7.0 9.0 0.00 0.00 0.00 98 1007.2
20260505222531 57 248 8.0 10.0 0.00 0.00 0.00 98 1006.8
20260505220531 56 254 9.0 14.0 0.00 0.00 0.00 98 1006.9
20260505214531 57 235 11.0 15.0 0.00 0.00 0.00 98 1007.1
20260505212531 58 221 10.0 13.0 0.00 0.00 0.00 98 1007.0
20260505210531 59 241 12.0 19.0 0.00 0.00 0.00 98 1006.9
20260505204531 59 261 12.0 16.0 0.00 0.00 0.00 98 1006.9
20260505202531 59 236 10.0 12.0 0.00 0.00 0.00 98 1007.2
20260505200532 61 220 9.0 13.0 0.00 0.00 0.00 98 1007.4
20260505194531 62 230 5.0 7.0 0.00 0.00 0.00 98 1007.8
20260505192531 62 240 7.0 11.0 0.00 0.00 0.00 98 1008.2
20260505190533 64 246 7.0 12.0 0.00 0.00 0.00 98 1008.2
20260505182531 64 254 8.0 12.0 0.00 0.00 0.00 98 1008.4
20260505180531 64 234 9.0 10.0 0.00 0.00 0.00 98 1008.7
20260505174531 65 238 9.0 13.0 0.00 0.00 0.00 98 1009.4
20260505172531 63 232 10.0 14.0 0.00 0.00 0.00 98 1009.1
20260505170532 63 231 6.0 9.0 0.00 0.00 0.00 98 1009.5
20260505164531 64 234 7.0 10.0 0.00 0.00 0.00 98 1009.7
20260505160531 67 257 5.0 7.0 0.00 0.00 0.00 98 1010.2
20260505152533 58 246 8.0 11.0 0.00 0.00 0.00 98 1010.8
20260505150531 57 231 5.0 8.0 0.00 0.00 0.00 98 1010.6
20260505140531 59 218 9.0 12.0 0.00 0.00 0.00 98 1011.0
20260505124531 61 219 4.0 8.0 0.00 0.00 0.00 98 1010.6
20260505122531 58 243 5.0 7.0 0.00 0.00 0.00 98 1010.8
20260505120531 57 240 5.0 6.0 0.00 0.00 0.00 98 1010.9
20260505114531 55 253 5.0 9.0 0.00 0.00 0.00 98 1011.0
20260505112532 54 247 6.0 6.0 0.00 0.00 0.00 98 1011.1
20260505110532 52 239 4.0 5.0 0.00 0.00 0.00 98 1011.1
20260505094531 48 243 4.0 6.0 0.00 0.00 0.00 98 1010.8
20260505092531 47 254 2.0 3.0 0.00 0.00 0.00 98 1010.8
20260505090531 47 237 2.0 3.0 0.00 0.00 0.00 98 1010.9
20260505084531 48 251 2.0 3.0 0.00 0.00 0.00 98 1010.9
20260505082531 48 240 1.0 2.0 0.00 0.00 0.00 98 1010.9
20260505080531 48 248 2.0 2.0 0.00 0.00 0.00 98 1010.9
20260505074531 48 0 0.0 0.0 0.00 0.00 0.00 98 1010.9
20260505072531 50 248 1.0 2.0 0.00 0.00 0.00 98 1010.8
20260505070531 51 255 3.0 4.0 0.00 0.00 0.00 98 1010.6
20260505064531 51 250 4.0 5.0 0.00 0.00 0.00 98 1010.6
20260505060532 52 247 3.0 3.0 0.00 0.00 0.00 98 1010.6
20260505054532 52 251 3.0 5.0 0.00 0.00 0.00 98 1010.6
20260505052532 53 250 4.0 5.0 0.00 0.00 0.00 98 1010.5
20260505050532 54 250 4.0 5.0 0.00 0.00 0.00 98 1010.3